EN

Hourly Weather Amangeldy

Today, 25 January, Monday

Time Temperature Precipitation Wind Pressure Humidity
00:00 -4°C° 0 mm 1 mps 719 mmHg 86%
01:00 -4°C° 0 mm 1 mps 718 mmHg 86%
02:00 -6°C° 0 mm 1 mps 718 mmHg 87%
03:00 -6°C° 0 mm 1 mps 717 mmHg 86%
04:00 -7°C° 0 mm 1 mps 717 mmHg 85%
05:00 -6°C° 0 mm 1 mps 716 mmHg 88%
06:00 -7°C° 0 mm 2 mps 716 mmHg 88%
07:00 -8°C° 0 mm 2 mps 716 mmHg 87%
08:00 -8°C° 0 mm 2 mps 715 mmHg 87%
09:00 -8°C° 0 mm 3 mps 715 mmHg 86%
10:00 -7°C° 0 mm 3 mps 715 mmHg 84%
11:00 -5°C° 0 mm 4 mps 715 mmHg 83%
12:00 -5°C° 0 mm 3 mps 714 mmHg 83%
13:00 -4°C° 0 mm 3 mps 714 mmHg 82%
14:00 -4°C° 0 mm 3 mps 713 mmHg 81%
15:00 -4°C° 0 mm 2 mps 714 mmHg 82%
16:00 -4°C° 0 mm 2 mps 714 mmHg 83%
17:00 -3°C° 0 mm 1 mps 714 mmHg 83%
18:00 -4°C° 0 mm 1 mps 714 mmHg 82%
19:00 -4°C° 0 mm 1 mps 714 mmHg 81%
20:00 -4°C° 0 mm 1 mps 715 mmHg 79%
21:00 -4°C° 0 mm 1 mps 715 mmHg 79%
22:00 -6°C° 0 mm 1 mps 715 mmHg 79%
23:00 -6°C° 0 mm 1 mps 715 mmHg 79%

Tomorrow, 26 January, Tuesday

Time Temperature Precipitation Wind Pressure Humidity
00:00 -6°C° 0 mm 1 mps 715 mmHg 78%
01:00 -7°C° 0 mm 1 mps 715 mmHg 77%
02:00 -7°C° 0 mm 1 mps 715 mmHg 76%
03:00 -8°C° 0 mm 1 mps 715 mmHg 76%
04:00 -8°C° 0 mm 1 mps 715 mmHg 76%
05:00 -8°C° 0 mm 1 mps 715 mmHg 75%
06:00 -8°C° 0 mm 1 mps 715 mmHg 74%
07:00 -8°C° 0 mm 1 mps 716 mmHg 74%
08:00 -7°C° 0 mm 1 mps 716 mmHg 73%
09:00 -6°C° 0 mm 1 mps 716 mmHg 73%
10:00 -4°C° 0 mm 1 mps 716 mmHg 73%
11:00 -3°C° 0 mm 1 mps 716 mmHg 74%
12:00 -2°C° 0 mm 1 mps 716 mmHg 76%
13:00 -1°C° 0 mm 1 mps 715 mmHg 78%
14:00 -1°C° 0 mm 1 mps 715 mmHg 80%
15:00 -2°C° 0 mm 1 mps 715 mmHg 80%
16:00 -3°C° 0 mm 1 mps 715 mmHg 80%
17:00 -4°C° 0 mm 1 mps 715 mmHg 80%
18:00 -6°C° 0 mm 2 mps 715 mmHg 76%
19:00 -6°C° 0 mm 2 mps 716 mmHg 73%
20:00 -6°C° 0 mm 2 mps 716 mmHg 70%
21:00 -7°C° 0 mm 3 mps 716 mmHg 70%
22:00 -7°C° 0 mm 3 mps 715 mmHg 69%
23:00 -7°C° 0 mm 3 mps 715 mmHg 68%

Day after tomorrow, 27 January, Wednesday

Time Temperature Precipitation Wind Pressure Humidity
00:00 -7°C° 0 mm 3 mps 715 mmHg 68%
01:00 -8°C° 0 mm 3 mps 715 mmHg 68%
02:00 -8°C° 0 mm 3 mps 715 mmHg 67%
03:00 -8°C° 0 mm 3 mps 715 mmHg 67%
04:00 -7°C° 0 mm 2 mps 715 mmHg 67%
05:00 -8°C° 0 mm 2 mps 714 mmHg 67%
06:00 -8°C° 0 mm 2 mps 714 mmHg 67%
07:00 -7°C° 0 mm 1 mps 715 mmHg 67%
08:00 -7°C° 0 mm 1 mps 715 mmHg 67%
09:00 -4°C° 0 mm 1 mps 714 mmHg 68%
10:00 -3°C° 0 mm 1 mps 714 mmHg 69%
11:00 -2°C° 0 mm 1 mps 714 mmHg 70%
12:00 -1°C° 0 mm 1 mps 713 mmHg 72%
13:00 -1°C° 0 mm 1 mps 713 mmHg 74%
14:00 0°C° 0 mm 1 mps 713 mmHg 76%
15:00 -1°C° 0 mm 1 mps 713 mmHg 76%
16:00 -3°C° 0 mm 1 mps 713 mmHg 76%
17:00 -4°C° 0 mm 1 mps 713 mmHg 76%
18:00 -4°C° 0 mm 1 mps 714 mmHg 74%
19:00 -6°C° 0 mm 1 mps 714 mmHg 72%
20:00 -6°C° 0 mm 1 mps 714 mmHg 70%
21:00 -6°C° 0 mm 1 mps 714 mmHg 70%
22:00 -8°C° 0 mm 2 mps 714 mmHg 69%
23:00 -8°C° 0 mm 2 mps 714 mmHg 69%

28 January, Thursday

Time Temperature Precipitation Wind Pressure Humidity
00:00 -7°C° 0 mm 1 mps 714 mmHg 69%
01:00 -7°C° 0 mm 1 mps 714 mmHg 68%
02:00 -8°C° 0 mm 1 mps 714 mmHg 68%
03:00 -8°C° 0 mm 1 mps 714 mmHg 68%
04:00 -8°C° 0 mm 1 mps 714 mmHg 68%
05:00 -8°C° 0 mm 1 mps 714 mmHg 68%
06:00 -8°C° 0 mm 1 mps 714 mmHg 68%
07:00 -8°C° 0 mm 1 mps 714 mmHg 68%
08:00 -8°C° 0 mm 1 mps 714 mmHg 68%
09:00 -6°C° 0 mm 1 mps 714 mmHg 69%
10:00 -4°C° 0 mm 1 mps 713 mmHg 69%
11:00 -2°C° 0 mm 1 mps 713 mmHg 70%
12:00 -2°C° 0 mm 1 mps 713 mmHg 71%
13:00 -1°C° 0 mm 1 mps 713 mmHg 71%
14:00 0°C° 0 mm 1 mps 712 mmHg 72%
15:00 -2°C° 0 mm 1 mps 712 mmHg 73%
16:00 -3°C° 0 mm 1 mps 712 mmHg 75%
17:00 -6°C° 0 mm 1 mps 712 mmHg 77%
18:00 -6°C° 0 mm 1 mps 713 mmHg 73%
19:00 -6°C° 0 mm 1 mps 713 mmHg 70%
20:00 -6°C° 0 mm 1 mps 713 mmHg 67%
21:00 -6°C° 0 mm 1 mps 713 mmHg 66%
22:00 -7°C° 0 mm 1 mps 713 mmHg 66%
23:00 -7°C° 0 mm 1 mps 713 mmHg 66%

29 January, Friday

Time Temperature Precipitation Wind Pressure Humidity
00:00 -7°C° 0 mm 1 mps 713 mmHg 65%
01:00 -7°C° 0 mm 1 mps 713 mmHg 65%
02:00 -7°C° 0 mm 1 mps 713 mmHg 64%
03:00 -7°C° 0 mm 1 mps 713 mmHg 64%
04:00 -7°C° 0 mm 1 mps 713 mmHg 64%
05:00 -8°C° 0 mm 1 mps 713 mmHg 64%
06:00 -7°C° 0 mm 1 mps 714 mmHg 63%
07:00 -7°C° 0 mm 1 mps 714 mmHg 63%
08:00 -7°C° 0 mm 1 mps 714 mmHg 63%
09:00 -6°C° 0 mm 1 mps 714 mmHg 64%
10:00 -3°C° 0 mm 1 mps 714 mmHg 64%
11:00 -2°C° 0 mm 1 mps 714 mmHg 65%
12:00 -1°C° 0 mm 1 mps 714 mmHg 67%
13:00 0°C° 0 mm 1 mps 714 mmHg 69%
14:00 0°C° 0 mm 1 mps 713 mmHg 71%
15:00 -1°C° 0 mm 1 mps 713 mmHg 71%
16:00 -2°C° 0 mm 1 mps 714 mmHg 71%
17:00 -3°C° 0 mm 1 mps 714 mmHg 71%
18:00 -4°C° 0 mm 1 mps 714 mmHg 67%
19:00 -4°C° 0 mm 1 mps 714 mmHg 62%
20:00 -6°C° 0 mm 2 mps 714 mmHg 58%
21:00 -6°C° 0 mm 2 mps 714 mmHg 57%
22:00 -6°C° 0 mm 2 mps 714 mmHg 56%
23:00 -6°C° 0 mm 2 mps 714 mmHg 55%

30 January, Saturday

Time Temperature Precipitation Wind Pressure Humidity
00:00 -7°C° 0 mm 3 mps 714 mmHg 55%
01:00 -7°C° 0 mm 3 mps 714 mmHg 54%
02:00 -7°C° 0 mm 3 mps 714 mmHg 54%
03:00 -7°C° 0 mm 3 mps 714 mmHg 54%
04:00 -8°C° 0 mm 4 mps 713 mmHg 53%
05:00 -7°C° 0 mm 4 mps 713 mmHg 52%
06:00 -7°C° 0 mm 4 mps 713 mmHg 52%
07:00 -7°C° 0 mm 5 mps 713 mmHg 52%
08:00 -6°C° 0 mm 5 mps 713 mmHg 51%
09:00 -5°C° 0 mm 6 mps 712 mmHg 54%
10:00 -3°C° 0 mm 6 mps 711 mmHg 57%
11:00 -2°C° 0 mm 6 mps 711 mmHg 60%
12:00 -1°C° 0 mm 6 mps 710 mmHg 60%
13:00 +1°C° 0 mm 6 mps 709 mmHg 59%
14:00 +2°C° 0 mm 6 mps 708 mmHg 59%
15:00 +1°C° 0 mm 6 mps 708 mmHg 54%
16:00 -1°C° 0 mm 6 mps 708 mmHg 49%
17:00 -2°C° 0 mm 6 mps 708 mmHg 44%
18:00 -2°C° 0 mm 6 mps 707 mmHg 44%
19:00 -3°C° 0 mm 6 mps 707 mmHg 44%
20:00 -3°C° 0 mm 6 mps 707 mmHg 45%
21:00 -3°C° 0 mm 6 mps 707 mmHg 45%
22:00 -3°C° 0 mm 6 mps 706 mmHg 45%
23:00 -3°C° 0 mm 6 mps 706 mmHg 45%
Show more